Location: Sebastopol
(38.4021°N, 122.8239°W)
Time: 15:11:41
(UTC+00:00)

Cosmos 2292 Rocket - Pass Details

Date: 29 October 2020
Orbit: 381 x 1451 km, 83.0° (Epoch: 30 November)

Event Time Altitude Azimuth Distance (km) Brightness Sun altitude
Rises 13:46:10 0° 183° (S) 2,263 6.6 -10.2°
Reaches altitude 10° 13:48:01 10° 182° (S) 1,451 5.6 -9.8°
Maximum altitude 13:51:04 80° 96° (E) 454 3.0 -9.2°
Drops below altitude 10° 13:54:45 10° 9° (N) 1,746 5.9 -8.5°
Sets 13:57:10 0° 8° (N) 2,788 6.9 -8.1°
